Time,TemperatureF,DewpointF,PressureIn,WindDirection,WindDirectionDegrees,WindSpeedMPH,WindSpeedGustMPH,Humidity,HourlyPrecipIn,Conditions,Clouds,dailyrainin,SolarRadiationWatts/m^2,SoftwareType,DateUTC
2013-11-24 00:00:00,39.0,22.0,-100.00,NNE,16,1.0,-999.0,50,0.00,,,0.02,1.000000,,2013-11-24 06:00:00,
2013-11-24 00:42:00,39.0,22.0,-100.00,NNE,16,1.0,-999.0,50,0.00,,,0.02,1.000000,,2013-11-24 06:42:00,
2013-11-24 00:52:00,39.0,22.0,-100.00,NNE,16,1.0,-999.0,50,0.00,,,0.02,1.000000,,2013-11-24 06:52:00,
2013-11-24 01:00:00,38.0,23.0,-100.00,North,10,1.0,-999.0,54,0.00,,,0.01,1.000000,,2013-11-24 07:00:00,
2013-11-24 01:42:00,38.0,23.0,-100.00,North,10,1.0,-999.0,54,0.00,,,0.01,1.000000,,2013-11-24 07:42:00,
2013-11-24 01:52:00,38.0,23.0,-100.00,North,10,1.0,-999.0,54,0.00,,,0.01,1.000000,,2013-11-24 07:52:00,
2013-11-24 02:00:00,38.0,28.0,-100.00,NE,44,1.0,-999.0,68,0.00,,,0.01,0.000000,,2013-11-24 08:00:00,
2013-11-24 02:42:00,38.0,28.0,-100.00,NE,44,1.0,-999.0,68,0.00,,,0.01,0.000000,,2013-11-24 08:42:00,
2013-11-24 02:53:00,38.0,28.0,-100.00,NE,44,1.0,-999.0,68,0.00,,,0.01,0.000000,,2013-11-24 08:53:00,
2013-11-24 03:00:00,37.0,27.0,-100.00,NNW,344,1.0,-999.0,69,0.00,,,0.00,1.000000,,2013-11-24 09:00:00,
2013-11-24 03:43:00,37.0,27.0,-100.00,NNW,344,1.0,-999.0,69,0.00,,,0.00,1.000000,,2013-11-24 09:43:00,
2013-11-24 03:54:00,37.0,27.0,-100.00,NNW,344,1.0,-999.0,69,0.00,,,0.00,1.000000,,2013-11-24 09:54:00,
2013-11-24 04:00:00,35.0,24.0,-100.00,North,5,1.0,-999.0,65,0.00,,,0.00,1.000000,,2013-11-24 10:00:00,
2013-11-24 04:43:00,35.0,24.0,-100.00,North,5,1.0,-999.0,65,0.00,,,0.00,1.000000,,2013-11-24 10:43:00,
2013-11-24 04:53:00,35.0,24.0,-100.00,North,5,1.0,-999.0,65,0.00,,,0.00,1.000000,,2013-11-24 10:53:00,
2013-11-24 05:00:00,34.0,21.0,-100.00,North,0,1.0,-999.0,60,0.00,,,0.00,0.000000,,2013-11-24 11:00:00,
2013-11-24 05:43:00,34.0,21.0,-100.00,North,0,1.0,-999.0,60,0.00,,,0.00,0.000000,,2013-11-24 11:43:00,
2013-11-24 05:53:00,34.0,21.0,-100.00,North,0,1.0,-999.0,60,0.00,,,0.00,0.000000,,2013-11-24 11:53:00,
2013-11-24 06:00:00,33.0,21.0,-100.00,NNE,12,1.0,-999.0,60,0.00,,,0.00,1.000000,,2013-11-24 12:00:00,
2013-11-24 06:42:00,33.0,21.0,-100.00,NNE,12,1.0,-999.0,60,0.00,,,0.00,1.000000,,2013-11-24 12:42:00,
2013-11-24 06:53:00,33.0,21.0,-100.00,NNE,12,1.0,-999.0,60,0.00,,,0.00,1.000000,,2013-11-24 12:53:00,
2013-11-24 07:00:00,32.0,19.0,-100.00,ENE,69,1.0,-999.0,58,0.00,,,0.00,3.000000,,2013-11-24 13:00:00,
2013-11-24 07:42:00,32.0,19.0,-100.00,ENE,69,1.0,-999.0,58,0.00,,,0.00,3.000000,,2013-11-24 13:42:00,
2013-11-24 07:52:00,32.0,19.0,-100.00,ENE,69,1.0,-999.0,58,0.00,,,0.00,3.000000,,2013-11-24 13:52:00,
2013-11-24 08:00:00,32.0,17.0,-100.00,NNE,32,1.0,-999.0,54,0.00,,,0.00,56.000000,,2013-11-24 14:00:00,
2013-11-24 08:42:00,32.0,17.0,-100.00,NNE,32,1.0,-999.0,54,0.00,,,0.00,56.000000,,2013-11-24 14:42:00,
2013-11-24 08:53:00,32.0,17.0,-100.00,NNE,32,1.0,-999.0,54,0.00,,,0.00,56.000000,,2013-11-24 14:53:00,
2013-11-24 09:00:00,33.0,18.0,-100.00,East,91,1.0,-999.0,54,0.00,,,0.00,169.000000,,2013-11-24 15:00:00,
2013-11-24 09:44:00,33.0,18.0,-100.00,East,91,1.0,-999.0,54,0.00,,,0.00,169.000000,,2013-11-24 15:44:00,
2013-11-24 09:53:00,33.0,18.0,-100.00,East,91,1.0,-999.0,54,0.00,,,0.00,169.000000,,2013-11-24 15:53:00,
2013-11-24 10:00:00,33.0,11.0,-100.00,NE,56,1.0,-999.0,38,0.00,,,0.00,232.000000,,2013-11-24 16:00:00,
2013-11-24 10:43:00,33.0,11.0,-100.00,NE,56,1.0,-999.0,38,0.00,,,0.00,232.000000,,2013-11-24 16:43:00,
2013-11-24 10:53:00,33.0,11.0,-100.00,NE,56,1.0,-999.0,38,0.00,,,0.00,232.000000,,2013-11-24 16:53:00,
2013-11-24 11:00:00,35.0,13.0,-100.00,ENE,71,1.0,-999.0,39,0.00,,,0.00,315.000000,,2013-11-24 17:00:00,
2013-11-24 11:43:00,35.0,13.0,-100.00,ENE,71,1.0,-999.0,39,0.00,,,0.00,315.000000,,2013-11-24 17:43:00,
2013-11-24 11:52:00,35.0,13.0,-100.00,ENE,71,1.0,-999.0,39,0.00,,,0.00,315.000000,,2013-11-24 17:52:00,
2013-11-24 12:00:00,36.0,16.0,-100.00,ENE,76,1.0,-999.0,45,0.00,,,0.00,208.000000,,2013-11-24 18:00:00,
2013-11-24 12:42:00,36.0,16.0,-100.00,ENE,76,1.0,-999.0,45,0.00,,,0.00,208.000000,,2013-11-24 18:42:00,
2013-11-24 12:53:00,36.0,16.0,-100.00,ENE,76,1.0,-999.0,45,0.00,,,0.00,208.000000,,2013-11-24 18:53:00,
2013-11-24 13:00:00,36.0,14.0,-100.00,ENE,76,1.0,-999.0,39,0.00,,,0.00,166.000000,,2013-11-24 19:00:00,
2013-11-24 13:42:00,36.0,14.0,-100.00,ENE,76,1.0,-999.0,39,0.00,,,0.00,166.000000,,2013-11-24 19:42:00,
2013-11-24 13:52:00,36.0,14.0,-100.00,ENE,76,1.0,-999.0,39,0.00,,,0.00,166.000000,,2013-11-24 19:52:00,
2013-11-24 14:00:00,37.0,16.0,-100.00,ENE,64,1.0,-999.0,43,0.00,,,0.00,162.000000,,2013-11-24 20:00:00,
2013-11-24 14:42:00,37.0,16.0,-100.00,ENE,64,1.0,-999.0,43,0.00,,,0.00,162.000000,,2013-11-24 20:42:00,
2013-11-24 14:52:00,37.0,16.0,-100.00,ENE,64,1.0,-999.0,43,0.00,,,0.00,162.000000,,2013-11-24 20:52:00,
2013-11-24 15:00:00,37.0,15.0,-100.00,ENE,57,1.0,-999.0,40,0.00,,,0.00,33.000000,,2013-11-24 21:00:00,
2013-11-24 15:43:00,37.0,15.0,-100.00,ENE,57,1.0,-999.0,40,0.00,,,0.00,33.000000,,2013-11-24 21:43:00,
2013-11-24 15:54:00,37.0,15.0,-100.00,ENE,57,1.0,-999.0,40,0.00,,,0.00,33.000000,,2013-11-24 21:54:00,
2013-11-24 16:00:00,37.0,19.0,-100.00,NE,47,1.0,-999.0,48,0.00,,,0.00,18.000000,,2013-11-24 22:00:00,
2013-11-24 16:43:00,37.0,19.0,-100.00,NE,47,1.0,-999.0,48,0.00,,,0.00,18.000000,,2013-11-24 22:43:00,
2013-11-24 16:53:00,37.0,19.0,-100.00,NE,47,1.0,-999.0,48,0.00,,,0.00,18.000000,,2013-11-24 22:53:00,
2013-11-24 17:00:00,33.0,23.0,-100.00,ENE,70,1.0,-999.0,65,0.01,,,0.01,8.000000,,2013-11-24 23:00:00,
2013-11-24 17:42:00,33.0,23.0,-100.00,ENE,70,1.0,-999.0,65,0.01,,,0.01,8.000000,,2013-11-24 23:42:00,
2013-11-24 17:52:00,33.0,23.0,-100.00,ENE,70,1.0,-999.0,65,0.01,,,0.01,8.000000,,2013-11-24 23:52:00,
2013-11-24 18:00:00,34.0,22.0,-100.00,NE,48,1.0,-999.0,63,0.01,,,0.02,1.000000,,2013-11-25 00:00:00,
2013-11-24 18:42:00,34.0,22.0,-100.00,NE,48,1.0,-999.0,63,0.01,,,0.02,1.000000,,2013-11-25 00:42:00,
2013-11-24 18:52:00,34.0,22.0,-100.00,NE,48,1.0,-999.0,63,0.01,,,0.02,1.000000,,2013-11-25 00:52:00,
2013-11-24 19:00:00,34.0,24.0,-100.00,ENE,58,1.0,-999.0,66,0.00,,,0.02,1.000000,,2013-11-25 01:00:00,
2013-11-24 19:43:00,34.0,24.0,-100.00,ENE,58,1.0,-999.0,66,0.00,,,0.02,1.000000,,2013-11-25 01:43:00,
2013-11-24 19:53:00,34.0,24.0,-100.00,ENE,58,1.0,-999.0,66,0.00,,,0.02,1.000000,,2013-11-25 01:53:00,
2013-11-24 20:00:00,33.0,25.0,-100.00,ENE,70,0.0,-999.0,74,0.00,,,0.02,0.000000,,2013-11-25 02:00:00,
2013-11-24 20:43:00,33.0,25.0,-100.00,ENE,70,0.0,-999.0,74,0.00,,,0.02,0.000000,,2013-11-25 02:43:00,
2013-11-24 20:52:00,33.0,25.0,-100.00,ENE,70,0.0,-999.0,74,0.00,,,0.02,0.000000,,2013-11-25 02:52:00,
2013-11-24 21:00:00,33.0,27.0,-100.00,ENE,66,1.0,-999.0,78,0.00,,,0.02,0.000000,,2013-11-25 03:00:00,
2013-11-24 21:43:00,33.0,27.0,-100.00,ENE,66,1.0,-999.0,78,0.00,,,0.02,0.000000,,2013-11-25 03:43:00,
2013-11-24 21:53:00,33.0,27.0,-100.00,ENE,66,1.0,-999.0,78,0.00,,,0.02,0.000000,,2013-11-25 03:53:00,
2013-11-24 22:00:00,32.0,23.0,-100.00,East,97,0.0,-999.0,68,0.00,,,0.02,0.000000,,2013-11-25 04:00:00,
2013-11-24 22:43:00,32.0,23.0,-100.00,East,97,0.0,-999.0,68,0.00,,,0.02,0.000000,,2013-11-25 04:43:00,
2013-11-24 22:53:00,32.0,23.0,-100.00,East,97,0.0,-999.0,68,0.00,,,0.02,0.000000,,2013-11-25 04:53:00,
2013-11-24 23:00:00,32.0,22.0,-100.00,ESE,112,1.0,-999.0,67,0.00,,,0.02,1.000000,,2013-11-25 05:00:00,
2013-11-24 23:43:00,32.0,22.0,-100.00,ESE,112,1.0,-999.0,67,0.00,,,0.02,1.000000,,2013-11-25 05:43:00,
2013-11-24 23:53:00,32.0,22.0,-100.00,ESE,112,1.0,-999.0,67,0.00,,,0.02,1.000000,,2013-11-25 05:53:00,